�������C�����ː����j�^�v���󋵏��
Date,Time,Cs137(Bq/L),Cs134(Bq/L),�S��(Bq/L)
2019/11/06,00:00,0.93,ND,ND
2019/11/06,00:10,0.92,ND,ND
2019/11/06,00:20,0.92,ND,ND
2019/11/06,00:30,0.91,ND,ND
2019/11/06,00:40,0.91,ND,9.2
2019/11/06,00:50,0.92,ND,9.2
2019/11/06,01:00,0.88,ND,9.7
2019/11/06,01:10,0.87,ND,9.6
2019/11/06,01:20,0.88,ND,10
2019/11/06,01:30,0.87,ND,12
2019/11/06,01:40,0.92,ND,11
2019/11/06,01:50,0.90,ND,10
2019/11/06,02:00,0.88,ND,9.5
2019/11/06,02:10,0.87,ND,10
2019/11/06,02:20,0.84,ND,11
2019/11/06,02:30,0.84,ND,9.6
2019/11/06,02:40,0.79,ND,11
2019/11/06,02:50,0.78,ND,12
2019/11/06,03:00,0.82,ND,12
2019/11/06,03:10,0.84,ND,12
2019/11/06,03:20,0.81,ND,11
2019/11/06,03:30,0.79,ND,13
2019/11/06,03:40,0.85,ND,13
2019/11/06,03:50,0.85,ND,11
2019/11/06,04:00,0.79,ND,12
2019/11/06,04:10,0.76,ND,9.0
2019/11/06,04:20,0.77,ND,9.5
2019/11/06,04:30,0.81,ND,10
2019/11/06,04:40,0.82,ND,10
2019/11/06,04:50,0.82,ND,10
2019/11/06,05:00,0.82,ND,12
2019/11/06,05:10,0.79,ND,13
2019/11/06,05:20,0.79,ND,12
2019/11/06,05:30,0.80,ND,12
2019/11/06,05:40,0.79,ND,10
2019/11/06,05:50,0.80,ND,9.2
2019/11/06,06:00,0.80,ND,ND
2019/11/06,06:10,0.85,ND,ND
2019/11/06,06:20,0.84,ND,ND
2019/11/06,06:30,0.84,ND,ND
2019/11/06,06:40,0.84,ND,ND
2019/11/06,06:50,0.82,ND,ND
2019/11/06,07:00,0.82,ND,9.3
2019/11/06,07:10,0.82,ND,9.3
2019/11/06,07:20,0.81,ND,ND
2019/11/06,07:30,0.81,ND,8.9
2019/11/06,07:40,0.83,ND,9.3
2019/11/06,07:50,0.83,ND,11
2019/11/06,08:00,0.84,ND,12
2019/11/06,08:10,0.85,ND,12
2019/11/06,08:20,0.83,ND,10
2019/11/06,08:30,0.85,ND,12
2019/11/06,08:40,0.83,ND,12
2019/11/06,08:50,0.84,ND,12
2019/11/06,09:00,0.82,ND,11
2019/11/06,09:10,0.85,ND,12
2019/11/06,09:20,0.84,ND,12
2019/11/06,09:30,0.81,ND,13
2019/11/06,09:40,0.82,ND,13
2019/11/06,09:50,0.80,ND,12
2019/11/06,10:00,0.77,ND,10
2019/11/06,10:10,0.78,ND,8.8
2019/11/06,10:20,0.77,ND,10
2019/11/06,10:30,0.79,ND,ND
2019/11/06,10:40,0.79,ND,ND
2019/11/06,10:50,0.81,ND,ND
2019/11/06,11:00,0.84,ND,ND
2019/11/06,11:10,0.79,ND,ND
2019/11/06,11:20,0.83,ND,ND
2019/11/06,11:30,0.83,ND,8.8
2019/11/06,11:40,0.84,ND,9.7
2019/11/06,11:50,0.82,ND,10
2019/11/06,12:00,0.84,ND,12
2019/11/06,12:10,0.84,ND,14
2019/11/06,12:20,0.81,ND,16
2019/11/06,12:30,0.78,ND,15
2019/11/06,12:40,0.82,ND,17
2019/11/06,12:50,0.85,ND,18
2019/11/06,13:00,0.85,ND,15
2019/11/06,13:10,0.89,ND,13
2019/11/06,13:20,0.92,ND,8.9
2019/11/06,13:30,0.84,ND,ND
2019/11/06,13:40,0.85,ND,ND
2019/11/06,13:50,0.85,ND,ND
2019/11/06,14:00,0.96,ND,ND
2019/11/06,14:10,0.96,ND,ND
2019/11/06,14:20,0.97,ND,ND
2019/11/06,14:30,0.95,ND,11
2019/11/06,14:40,0.93,ND,9.3
2019/11/06,14:50,0.93,ND,11
2019/11/06,15:00,0.93,ND,10
2019/11/06,15:10,0.87,ND,9.0
2019/11/06,15:20,0.85,ND,ND
2019/11/06,15:30,0.87,ND,ND
2019/11/06,15:40,0.91,ND,ND
2019/11/06,15:50,0.92,ND,ND
2019/11/06,16:00,0.89,ND,ND
2019/11/06,16:10,0.90,ND,ND
2019/11/06,16:20,0.90,ND,ND
2019/11/06,16:30,0.84,ND,ND
2019/11/06,16:40,0.82,ND,ND
2019/11/06,16:50,0.80,ND,ND
2019/11/06,17:00,0.81,ND,8.9
2019/11/06,17:10,0.81,ND,ND
2019/11/06,17:20,0.86,ND,ND
2019/11/06,17:30,0.87,ND,ND
2019/11/06,17:40,0.90,ND,ND
2019/11/06,17:50,0.91,ND,ND
2019/11/06,18:00,0.93,ND,ND
2019/11/06,18:10,0.95,ND,ND
2019/11/06,18:20,0.98,ND,ND
2019/11/06,18:30,0.99,ND,12
2019/11/06,18:40,1.0,ND,8.9
2019/11/06,18:50,1.0,ND,11
2019/11/06,19:00,1.0,ND,12
2019/11/06,19:10,1.0,ND,13
2019/11/06,19:20,0.97,ND,9.0
2019/11/06,19:30,0.95,ND,ND
2019/11/06,19:40,0.95,ND,10
2019/11/06,19:50,0.93,ND,11
2019/11/06,20:00,0.91,ND,12
2019/11/06,20:10,0.90,ND,ND
2019/11/06,20:20,0.91,ND,12
2019/11/06,20:30,0.91,ND,14
2019/11/06,20:40,0.91,ND,13
2019/11/06,20:50,0.90,ND,ND
2019/11/06,21:00,0.96,ND,ND
2019/11/06,21:10,0.96,ND,9.7
2019/11/06,21:20,0.93,ND,11
2019/11/06,21:30,0.93,ND,9.7
2019/11/06,21:40,0.95,ND,11
2019/11/06,21:50,0.97,ND,15
2019/11/06,22:00,0.95,ND,14
2019/11/06,22:10,0.95,ND,13
2019/11/06,22:20,0.93,ND,9.3
2019/11/06,22:30,0.93,ND,ND
2019/11/06,22:40,0.92,ND,ND
2019/11/06,22:50,0.92,ND,ND
2019/11/06,23:00,0.93,ND,ND
2019/11/06,23:10,0.92,ND,ND
2019/11/06,23:20,0.91,ND,9.0
2019/11/06,23:30,0.90,ND,ND
2019/11/06,23:40,0.89,ND,ND
2019/11/06,23:50,0.87,ND,ND
